STARLINK-1853 (47140 NORAD) Tracking and Keplerian Element Data
This shows tracking and keplerian element data for the satellite.
Feedback or suggestion? Click here.
Element | Value |
Catalog | 47140 |
Name | STARLINK-1853 |
Epoch Orbit | 1606 |
Epoch Day | 62.91667824 |
Epoch Year | 2021 |
RAAN | 243.9943 |
Inclination | 53.0543 |
Eccentricity | 0.0001353 |
Argument of Perigee | 67.1541 |
Mean Anonmoly | 173.3332 |
Mean Motion | 15.04742164 |
Decay Rate | 0.0003831 |
L1 | 1 47140U 20088U 21062.91667824 .00038310 00000-0 26940-2 0 9996 |
L2 | 2 47140 53.0543 243.9943 0001353 67.1541 173.3332 15.04742164 16067 |
Live tracking and technical data element details for STARLINK-1853 (NORAD 47140). STARLINK-1853 can be tracked NOW for your location showing map with azimuth and elevation plus other details from your city location.
Track the satellite on the map from your city or location and see movement details for azimuth, elevation, latitude, longitude, range, height, and movement on the map or in text.
IsCatalogInMostPopularTable: catalog: 47140, numindb: 37
Update: records affected: 1
GetName: 47140 STARLINK-1853
Hit Count: updated at: Fri, 05 Mar 2021 07:07:05 GMT